DW7304 Weather Reports


Display with metric or nautical units.
time (UTC)temp
F
wind
direction
speed
MPH
gust
MPH
rain 1hr
in
rain 24hr
in
rain mn
in
humidity
%
barometer
mb
20260502230903 53 113 2.0 2.0 0.00 0.00 0.00 60 1016.9
20260502230003 53 110 2.0 2.0 0.00 0.00 0.00 60 1017.0
20260502225403 53 110 2.0 2.0 0.00 0.00 0.00 60 1017.0
20260502224503 53 109 2.0 2.0 0.00 0.00 0.00 60 1017.1
20260502223603 53 95 1.0 2.0 0.00 0.00 0.00 59 1017.1
20260502222703 53 109 0.0 2.0 0.00 0.00 0.00 59 1017.2
20260502221803 53 105 0.0 2.0 0.00 0.00 0.00 59 1017.2
20260502220903 53 112 1.0 2.0 0.00 0.00 0.00 59 1017.2
20260502220003 53 118 1.0 2.0 0.00 0.00 0.00 58 1017.2
20260502215404 54 126 1.0 3.0 0.00 0.00 0.00 58 1017.0
20260502214503 54 112 2.0 3.0 0.00 0.00 0.00 58 1017.2
20260502213603 54 117 2.0 3.0 0.00 0.00 0.00 58 1017.2
20260502212703 54 124 2.0 3.0 0.00 0.00 0.00 57 1017.1
20260502211803 54 118 2.0 3.0 0.00 0.00 0.00 57 1017.3
20260502210903 53 111 2.0 3.0 0.00 0.00 0.00 57 1017.1
20260502210003 53 99 2.0 3.0 0.00 0.00 0.00 58 1017.5
20260502205403 53 102 1.0 3.0 0.00 0.00 0.00 57 1017.5
20260502204503 54 143 1.0 2.0 0.00 0.00 0.00 57 1017.5
20260502203603 54 163 2.0 4.0 0.00 0.00 0.00 56 1017.7
20260502202703 54 166 2.0 4.0 0.00 0.00 0.00 56 1017.5
20260502201803 55 187 2.0 4.0 0.00 0.00 0.00 56 1017.5
20260502201118 55 180 2.0 3.0 0.00 0.00 0.00 56 1017.7
20260502200003 55 152 2.0 3.0 0.00 0.00 0.00 55 1017.7
20260502195403 55 156 1.0 3.0 0.00 0.00 0.00 55 1017.5
20260502194503 55 155 2.0 4.0 0.00 0.00 0.00 55 1017.7
20260502193603 55 162 2.0 5.0 0.00 0.00 0.00 55 1017.7
20260502192703 55 147 1.0 3.0 0.00 0.00 0.00 54 1017.7
20260502191803 56 202 1.0 3.0 0.00 0.00 0.00 54 1017.5
20260502190903 56 159 2.0 4.0 0.00 0.00 0.00 54 1017.5
20260502190004 56 150 2.0 6.0 0.00 0.00 0.00 54 1017.4
20260502185403 56 125 3.0 6.0 0.00 0.00 0.00 53 1017.5
20260502184503 57 111 2.0 5.0 0.00 0.00 0.00 53 1017.4
20260502183603 57 121 2.0 5.0 0.00 0.00 0.00 53 1017.3
20260502182703 57 76 1.0 4.0 0.00 0.00 0.00 53 1017.1
20260502182018 57 94 2.0 5.0 0.00 0.00 0.00 53 1017.1
20260502180903 57 95 2.0 6.0 0.00 0.00 0.00 53 1017.1
20260502163603 63 221 8.0 12.0 0.00 0.00 0.00 49 1017.1
20260502162703 64 216 6.0 12.0 0.00 0.00 0.00 48 1017.1
20260502161803 65 236 7.0 13.0 0.00 0.00 0.00 47 1017.1
20260502160903 65 232 5.0 11.0 0.00 0.00 0.00 47 1017.2
20260502152017 68 251 4.0 11.0 0.00 0.00 0.00 42 1017.8
20260502150903 67 248 5.0 11.0 0.00 0.00 0.00 42 1017.8
20260502123603 68 252 5.0 12.0 0.00 0.00 0.00 42 1019.1
20260502122703 67 283 4.0 11.0 0.00 0.00 0.00 42 1019.1
20260502121803 68 261 4.0 12.0 0.00 0.00 0.00 43 1019.3
20260502120903 67 248 4.0 12.0 0.00 0.00 0.00 43 1019.3
20260502115403 68 267 3.0 8.0 0.00 0.00 0.00 45 1019.4
20260502114503 66 251 4.0 11.0 0.00 0.00 0.00 44 1019.4
20260502113603 65 247 5.0 16.0 0.00 0.00 0.00 44 1019.5
20260502112703 66 264 4.0 9.0 0.00 0.00 0.00 45 1019.5
20260502111803 67 272 4.0 10.0 0.00 0.00 0.00 44 1019.7
20260502110903 65 243 4.0 10.0 0.00 0.00 0.00 44 1019.7
20260502110003 66 248 3.0 9.0 0.00 0.00 0.00 43 1019.8
20260502105617 65 250 3.0 10.0 0.00 0.00 0.00 44 1019.9
20260502104503 66 270 3.0 8.0 0.00 0.00 0.00 43 1019.9
20260502103603 67 282 2.0 6.0 0.00 0.00 0.00 42 1020.1
20260502102703 66 269 2.0 6.0 0.00 0.00 0.00 43 1020.2
20260502101116 65 284 2.0 4.0 0.00 0.00 0.00 43 1020.3
20260502100217 64 269 3.0 11.0 0.00 0.00 0.00 44 1020.5
20260502091118 62 260 3.0 11.0 0.00 0.00 0.00 45 1021.0
20260502090217 63 264 2.0 6.0 0.00 0.00 0.00 45 1021.0
20260502070903 58 276 0.0 2.0 0.00 0.00 0.00 48 1021.2
20260502070003 58 266 0.0 2.0 0.00 0.00 0.00 48 1021.2
20260502065403 57 275 1.0 3.0 0.00 0.00 0.00 49 1021.2
20260502064503 57 345 0.0 2.0 0.00 0.00 0.00 49 1021.2
20260502063817 57 332 0.0 2.0 0.00 0.00 0.00 50 1021.3
20260502062703 56 245 0.0 3.0 0.00 0.00 0.00 51 1021.3
20260502061803 56 349 0.0 2.0 0.00 0.00 0.00 53 1021.4
20260502060903 56 70 0.0 2.0 0.00 0.00 0.00 55 1021.3
20260502060003 55 65 0.0 2.0 0.00 0.00 0.00 58 1021.3
20260502055403 54 42 1.0 3.0 0.00 0.00 0.00 57 1021.2
20260502054505 53 42 1.0 4.0 0.00 0.00 0.00 58 1021.2
20260502053603 52 50 1.0 3.0 0.00 0.00 0.00 59 1021.3
20260502052703 51 31 1.0 3.0 0.00 0.00 0.00 60 1021.5
20260502051803 50 36 2.0 4.0 0.00 0.00 0.00 60 1021.4
20260502050903 49 45 0.0 2.0 0.00 0.00 0.00 61 1021.4
20260502050218 48 0 0.0 0.0 0.00 0.00 0.00 60 1021.5
20260502045403 48 20 0.0 2.0 0.00 0.00 0.00 60 1021.3
20260502044504 48 20 2.0 4.0 0.00 0.00 0.00 60 1021.3
20260502043603 48 22 3.0 5.0 0.00 0.00 0.00 60 1021.3
20260502042703 48 25 3.0 5.0 0.00 0.00 0.00 61 1021.3
20260502041803 47 76 3.0 4.0 0.00 0.00 0.00 61 1021.4
20260502040903 47 42 3.0 4.0 0.00 0.00 0.00 62 1021.3
20260502040217 47 31 4.0 4.0 0.00 0.00 0.00 62 1021.3
20260502035403 47 59 3.0 4.0 0.00 0.00 0.00 61 1021.4
20260502034503 47 98 2.0 3.0 0.00 0.00 0.00 62 1021.3
20260502033603 46 137 1.0 2.0 0.00 0.00 0.00 62 1021.3
20260502032703 47 22 1.0 4.0 0.00 0.00 0.00 61 1021.2
20260502031803 47 24 4.0 5.0 0.00 0.00 0.00 62 1021.2
20260502030903 47 35 3.0 5.0 0.00 0.00 0.00 62 1021.2
20260502030003 46 37 3.0 6.0 0.00 0.00 0.00 62 1021.3
20260502025403 47 29 3.0 4.0 0.00 0.00 0.00 62 1021.3
20260502024503 47 33 3.0 4.0 0.00 0.00 0.00 62 1021.5
20260502023817 47 29 3.0 4.0 0.00 0.00 0.00 62 1021.4
20260502022703 47 34 2.0 4.0 0.00 0.00 0.00 62 1021.4
20260502021803 46 49 3.0 3.0 0.00 0.00 0.00 62 1021.4
20260502020903 46 34 3.0 5.0 0.00 0.00 0.00 62 1021.5
20260502020003 46 24 3.0 5.0 0.00 0.00 0.00 62 1021.5
20260502015403 46 26 4.0 5.0 0.00 0.00 0.00 62 1021.4
20260502014503 47 26 3.0 5.0 0.00 0.00 0.00 61 1021.5
20260502013603 47 19 3.0 5.0 0.00 0.00 0.00 60 1021.6
20260502012918 47 18 3.0 5.0 0.00 0.00 0.00 60 1021.4
20260502011803 47 39 3.0 4.0 0.00 0.00 0.00 61 1021.5
20260502011117 47 45 3.0 3.0 0.00 0.00 0.00 60 1021.7
20260502010004 47 38 3.0 3.0 0.00 0.00 0.00 60 1021.6
20260502005403 47 37 3.0 3.0 0.00 0.00 0.00 60 1021.7
20260502004503 47 32 3.0 4.0 0.00 0.00 0.00 60 1021.7
20260502003603 47 31 3.0 4.0 0.00 0.00 0.00 60 1021.7
20260502002703 47 22 2.0 4.0 0.00 0.00 0.00 60 1021.9
20260502001803 47 16 2.0 4.0 0.00 0.00 0.00 60 1022.2
20260502001117 47 22 2.0 4.0 0.00 0.00 0.00 60 1022.1
20260502000003 48 5 0.0 2.0 0.00 0.00 0.00 58 1022.1
20260501235617 48 5 0.0 2.0 0.00 0.00 0.00 58 1022.0
20260501234504 49 296 0.0 3.0 0.00 0.00 0.00 56 1022.1
20260501233603 50 20 2.0 7.0 0.00 0.00 0.00 56 1021.9
20260501232703 50 62 2.0 8.0 0.00 0.00 0.00 56 1022.0
20260501232017 50 67 4.0 9.0 0.00 0.00 0.00 55 1021.9